{"data":{"norad_id":58977,"intl_designator":"2024-031N","name":"STARLINK-31358","alt_names":[],"object_type":"PAYLOAD","status":"ACTIVE","operator":null,"country":"US","launch_date":"2024-02-15","launch_site_code":"AFWTR","launch_vehicle":null,"mission":null,"orbit_class":"UNKNOWN","rcs_meters":null,"size_class":null,"mass_kg":null,"dimensions":null,"purposes":["comms"],"wikipedia_slug":null,"has_3d_model":false,"image_url":null,"decayed_at":null,"tle_current":{"epoch":"2026-09-20T22:43:12.338976Z","epoch_age_seconds":117135,"freshness":"FRESH","line1":"1 58977U 24031N   26263.94667059  .00004275  00000+0  13763-3 0  9991","line2":"2 58977  53.1583 107.9083 0001219  87.5635 272.5507 15.34391636146435","mean_motion":15.34391636,"eccentricity":0.0001219,"inclination_deg":53.1583,"raan_deg":107.9083,"arg_perigee_deg":87.5635,"mean_anomaly_deg":272.5507,"bstar":0.00013763,"rev_number":14643,"period_min":93.848269647372,"perigee_km":461.89419843499,"apogee_km":463.56200134634,"semimajor_km":6840.8650998907,"source":"CELESTRAK","updated_at":"2026-09-21T09:00:34.021119Z"}}}